星链-34463 (STARLINK-34463)

导读

STARLINK-34463是由美国于2025年6月25日发射的星链卫星,星链计划是美国太空探索技术公司推出的低轨卫星互联网项目,旨在为全球用户提供高速低延迟的宽带互联网服务,该卫星加入后进一步扩充了星链星座的规模,推动低轨卫星互联网组网进程。

Basic Information
目录编号:
64598
目录名称:
STARLINK-34463
国际标识:
2025-137E
轨道中心:
EARTH
卫星名称:
星链-34463
卫星全名:
星链-34463 (STARLINK-34463)
卫星状态:
在轨 (已飞行353 天)
发射日期:
2025-06-25 UTC
国别 :
美国 (US)
星等 :
--
Orbit Information
数据来源 国际轨道数据 AOE轨道数据
星历时间 2026-06-13T19:56:51+0800
11小时前
查看轨道信息
2026-06-11T10:00:00+0800
2天前
查看轨道信息
半长轴 6840.849km 6840.695km
偏心率 0.0001184 0.0001319
轨道倾角 53.161° 53.159°
近地点辐角 97.317° 46.898°
升交点赤经 250.210° 261.498°
平近点角 262.796° 288.716°
近地点 461.902km 461.655km
远地点 463.522km 463.461km
周期 93.848分钟 93.845分钟
每日圈数 15.343973 15.344492
Detailed Information
固有亮度:
5
最大亮度:
2.5
卫星平台:
Starlink V1.0
覆盖范围:
全球
运营商:
太空探索技术公司
运营商所在国:
美国
制造商(研发单位):
太空探索技术公司
制造商所在国:
美国
使用方式:
暂无
Satellite Introduction
Starlink 计划是 SpaceX 推出的全球卫星互联网项目,通过发射低轨道卫星,为全球尤其是偏远地区提供高速、低延迟的互联网服务。自 2019 年起,Starlink 已部署数千颗卫星,旨在缩小全球数字鸿沟,推动互联网普及。该项目还为军事、航空等行业提供通信支持,带来广泛经济效益。
2D Orbit Map
3D Orbit Map
Orbit Altitude Analysis Chart
Orbit Inclination Analysis Chart
Orbit Comprehensive Analysis Chart
View Comprehensive Chart